Flag for Martinique Weather past 2 weeks in Fort-de-France, Martinique

Now
79 °F

Passing clouds.


Feels Like: 82 °F
Forecast: 81 / 88 °F
Wind: 7 mph from Southeast

Location: Le Lamentin Airport

Current Time: Aug 2, 2014 at 5:13:28 AM

Latest Report: Aug 2, 2014 at 4:30 AM


Visibility: N/A

Pressure: 29.95 "Hg

Humidity: 89%

Dew point: 75 °F

Location of Fort-de-FranceLocation

Historic Weather in Fort-de-France — Graph

°F

Fort-de-France temperature yesterday

Maximum temperature yesterday: 86 °F (at 12:30 PM)
Minimum temperature yesterday: 77 °F (at 10:00 AM)
Average temperature yesterday: 79 °F

Past Weeks' High & Low Weather Summary

 TemperatureHumidityPressure
High90 °F (Jul 29, 1:00 PM)94% (Jul 23, 11:30 PM)30.09 "Hg (Jul 23, 11:30 PM)
Low75 °F (Jul 29, 5:00 AM)52% (Jul 29, 1:00 PM)29.77 "Hg (Aug 1, 3:30 PM)
Average82 °F76%30.01 "Hg
* Reported Jul 18 4:00 AM — Aug 2 4:00 AM, Fort-de-France, Weather by CustomWeather, © 2014

Note: Actual official high and low records may vary slightly from our data, if they occured in-between our weather recording intervals... More about our weather records

Advertising

Fort-de-France weather history for previous 24 hours

 ConditionsComfort  
Time TempWeatherWind HumidityBarometerVisibility
4:00 AM
Aug 2
79 °FPassing clouds.7 mph89%29.95 "HgN/A
3:30 AM77 °FPassing clouds.5 mph94%29.95 "HgN/A
3:00 AM77 °FPassing clouds.5 mph94%29.95 "HgN/A
2:30 AM77 °FPassing clouds.6 mph94%29.95 "HgN/A
2:00 AM77 °FHeavy rain. Partly cloudy.6 mph94%29.95 "HgN/A
1:30 AM77 °FPassing clouds.5 mph94%29.95 "HgN/A
1:00 AM77 °FPassing clouds.6 mph94%29.95 "HgN/A
12:30 AM77 °FPassing clouds.5 mph94%29.98 "HgN/A
12:00 AM77 °FPassing clouds.7 mph94%29.98 "HgN/A
11:30 PM
Aug 1
77 °FLight rain. Partly cloudy.9 mph94%29.98 "HgN/A
11:00 PM77 °FPassing clouds.6 mph94%29.98 "HgN/A
10:30 PM77 °FLight rain. Mostly cloudy.8 mph94%29.98 "Hg4 mi
10:00 PM77 °FMostly cloudy.3 mph94%29.98 "HgN/A
9:30 PM79 °FPartly cloudy.5 mph89%29.95 "HgN/A
9:00 PM79 °FPartly cloudy.9 mph89%29.92 "HgN/A
8:30 PM79 °FPartly cloudy.9 mph89%29.92 "HgN/A
8:00 PM77 °FPartly cloudy.7 mph94%29.89 "HgN/A
7:30 PM77 °FPartly cloudy.7 mph94%29.89 "HgN/A
7:00 PM77 °FPartly cloudy.5 mph94%29.89 "HgN/A
6:30 PM77 °FPartly sunny.6 mph94%29.86 "HgN/A
6:00 PM77 °FBroken clouds.6 mph94%29.83 "HgN/A
5:30 PM77 °FMore clouds than sun.6 mph94%29.83 "HgN/A
5:00 PM77 °FLight rain. Partly sunny.9 mph94%29.83 "HgN/A
4:30 PM77 °FRain. Mostly cloudy.17 mph94%29.80 "HgN/A
4:00 PM79 °FMostly cloudy.21 mph89%29.80 "HgN/A
3:30 PM79 °FMostly cloudy.14 mph89%29.77 "HgN/A
3:00 PM79 °FLight rain. More clouds than sun.5 mph89%29.80 "HgN/A
2:30 PM79 °FLight rain. Partly sunny.8 mph94%29.83 "HgN/A
2:00 PM77 °FLight rain. Fog.5 mph94%29.86 "Hg3 mi
1:30 PM77 °FRain. Fog.7 mph94%29.89 "Hg2 mi
1:00 PM79 °FHeavy rain. Fog.15 mph84%29.89 "Hg1 mi
12:30 PM86 °FPartly sunny.16 mph66%29.89 "HgN/A
12:00 PM84 °FPartly sunny.15 mph66%29.92 "HgN/A
11:30 AM84 °FBroken clouds.15 mph70%29.92 "HgN/A
11:00 AM84 °FClear.17 mph70%29.92 "HgN/A
10:30 AM81 °FFog.15 mph79%29.95 "Hg3 mi
10:00 AM77 °FRain. Fog.22 mph89%29.95 "Hg2 mi
9:30 AM84 °FBroken clouds.17 mph79%29.95 "HgN/A
9:00 AM84 °FBroken clouds.13 mph79%29.95 "HgN/A
8:30 AM82 °FBroken clouds.12 mph79%29.95 "HgN/A
8:00 AM82 °FBroken clouds.12 mph79%29.95 "HgN/A
7:30 AM81 °FBroken clouds.6 mph84%29.95 "HgN/A
7:00 AM81 °FScattered clouds.6 mph84%29.95 "HgN/A
6:30 AM81 °FScattered clouds.3 mph79%29.95 "HgN/A
6:00 AM79 °FScattered clouds.3 mph84%29.92 "HgN/A
5:30 AM79 °FPassing clouds.2 mph89%29.92 "HgN/A
5:00 AM79 °FPassing clouds.2 mph84%29.92 "HgN/A
Weather by CustomWeather, © 2014

See weather overviewHow to use our weather pages